Location: Isola Pescaroli
(45.0500°N, 10.1667°E)
Time: 14:31:56
(UTC+00:00)

Ariane Rocket - Pass Details

Date: 03 March 2021
Orbit: 759 x 770 km, 98.7° (Epoch: 23 April)

Event Time Altitude Azimuth Distance (km) Brightness Sun altitude
Exits shadow 18:42:03 27° 118° (ESE) 1,441 3.9 -17.1°
Maximum altitude 18:44:13 41° 68° (ENE) 1,106 3.4 -17.5°
Drops below altitude 10° 18:48:59 10° 359° (N) 2,323 5.6 -18.3°
Sets 18:51:24 0° 353° (N) 3,253 6.5 -18.7°
